Terug naar catalogus

VOLGA DEB

ActiefSSO
NORAD 44621·DEBRIS·🇷🇺 Russia

Gelanceerd Jul 10, 2019 vanaf Plesetsk Cosmodrome

Loading…

Volgende Passages (komende 24 uur)

TLE

VersSource: Space-Track

Epoch: Sep 14, 2026, 00:19 UTC

1 44621U 19039F   26257.01319965  .00002322  00000-0  20626-3 0  9993
2 44621  97.5739 280.3439 0006430 305.2801  54.7819 14.97063499389736

Volg VOLGA DEB in realtime met AllMySat

Download on the App Store